Date_Time,Julian_Date,Latitude,Longitude,Instrument_Depth,U,V,Speed,Direction
(yyyy-mm-dd hh:mn:ss UTC),(JD),(+ deg. North),(+ deg. East),(m),(cm/s),(cm/s),(cm/s),(deg True)
1984-10-11 19:30:00 UTC,2445985.312500,29.6633,-93.4786,0079,12.58,8.17,15.0000,57.0000
1984-10-11 20:00:00 UTC,2445985.333333,29.6633,-93.4786,0079,14.13,7.51,16.0000,62.0000
1984-10-11 20:30:00 UTC,2445985.354167,29.6633,-93.4786,0079,15.65,6.64,17.0000,67.0000
1984-10-11 21:00:00 UTC,2445985.375000,29.6633,-93.4786,0079,14.00,5.38,15.0000,69.0000
1984-10-11 21:30:00 UTC,2445985.395833,29.6633,-93.4786,0079,13.24,4.56,14.0000,71.0000
1984-10-11 22:00:00 UTC,2445985.416667,29.6633,-93.4786,0079,13.74,2.67,14.0000,79.0000
1984-10-11 22:30:00 UTC,2445985.437500,29.6633,-93.4786,0079,13.97,0.98,14.0000,86.0000
1984-10-11 23:00:00 UTC,2445985.458333,29.6633,-93.4786,0079,15.00,0.00,15.0000,90.0000
1984-10-11 23:30:00 UTC,2445985.479167,29.6633,-93.4786,0079,15.96,-1.12,16.0000,94.0000
1984-10-12 00:00:00 UTC,2445985.500000,29.6633,-93.4786,0079,16.79,-2.66,17.0000,99.0000
1984-10-12 00:30:00 UTC,2445985.520833,29.6633,-93.4786,0079,16.42,-4.40,17.0000,105.0000
1984-10-12 01:00:00 UTC,2445985.541667,29.6633,-93.4786,0079,16.07,-5.53,17.0000,109.0000
1984-10-12 01:30:00 UTC,2445985.562500,29.6633,-93.4786,0079,13.37,-6.81,15.0000,117.0000
1984-10-12 02:00:00 UTC,2445985.583333,29.6633,-93.4786,0079,9.35,-9.03,13.0000,134.0000
1984-10-12 02:30:00 UTC,2445985.604167,29.6633,-93.4786,0079,5.26,-10.79,12.0000,154.0000
1984-10-12 03:00:00 UTC,2445985.625000,29.6633,-93.4786,0079,1.91,-10.83,11.0000,170.0000
1984-10-12 03:30:00 UTC,2445985.645833,29.6633,-93.4786,0079,-0.52,-9.99,10.0000,183.0000
1984-10-12 04:00:00 UTC,2445985.666667,29.6633,-93.4786,0079,-3.58,-9.34,10.0000,201.0000
1984-10-12 04:30:00 UTC,2445985.687500,29.6633,-93.4786,0079,-7.07,-7.07,10.0000,225.0000
1984-10-12 05:00:00 UTC,2445985.708333,29.6633,-93.4786,0079,-9.34,-3.58,10.0000,249.0000
1984-10-12 05:30:00 UTC,2445985.729167,29.6633,-93.4786,0079,-12.00,0.21,12.0000,271.0000
1984-10-12 06:00:00 UTC,2445985.750000,29.6633,-93.4786,0079,-16.74,2.95,17.0000,280.0000
1984-10-12 06:30:00 UTC,2445985.770833,29.6633,-93.4786,0079,-21.67,3.82,22.0000,280.0000
1984-10-12 07:00:00 UTC,2445985.791667,29.6633,-93.4786,0079,-22.58,4.39,23.0000,281.0000
1984-10-12 07:30:00 UTC,2445985.812500,29.6633,-93.4786,0079,-21.25,5.69,22.0000,285.0000
1984-10-12 08:00:00 UTC,2445985.833333,29.6633,-93.4786,0079,-21.15,6.06,22.0000,286.0000
1984-10-12 08:30:00 UTC,2445985.854167,29.6633,-93.4786,0079,-19.73,7.18,21.0000,290.0000
1984-10-12 09:00:00 UTC,2445985.875000,29.6633,-93.4786,0079,-17.98,8.77,20.0000,296.0000
1984-10-12 09:30:00 UTC,2445985.895833,29.6633,-93.4786,0079,-17.14,10.30,20.0000,301.0000
1984-10-12 10:00:00 UTC,2445985.916667,29.6633,-93.4786,0079,-16.38,11.47,20.0000,305.0000
1984-10-12 10:30:00 UTC,2445985.937500,29.6633,-93.4786,0079,-14.55,12.21,19.0000,310.0000
1984-10-12 11:00:00 UTC,2445985.958333,29.6633,-93.4786,0079,-11.82,9.23,15.0000,308.0000
1984-10-12 11:30:00 UTC,2445985.979167,29.6633,-93.4786,0079,-7.71,4.64,9.0000,301.0000
1984-10-12 12:00:00 UTC,2445986.000000,29.6633,-93.4786,0079,-3.71,1.50,4.0000,292.0000
1984-10-12 12:30:00 UTC,2445986.020833,29.6633,-93.4786,0079,-1.91,0.58,2.0000,287.0000
1984-10-12 13:00:00 UTC,2445986.041667,29.6633,-93.4786,0079,-1.93,0.52,2.0000,285.0000
1984-10-12 13:30:00 UTC,2445986.062500,29.6633,-93.4786,0079,-1.83,0.81,2.0000,294.0000
1984-10-12 14:00:00 UTC,2445986.083333,29.6633,-93.4786,0079,-1.41,1.41,2.0000,315.0000
1984-10-12 14:30:00 UTC,2445986.104167,29.6633,-93.4786,0079,-0.10,3.00,3.0000,358.0000
1984-10-12 15:00:00 UTC,2445986.125000,29.6633,-93.4786,0079,0.70,4.95,5.0000,8.0000
1984-10-12 15:30:00 UTC,2445986.145833,29.6633,-93.4786,0079,1.80,7.79,8.0000,13.0000
1984-10-12 16:00:00 UTC,2445986.166667,29.6633,-93.4786,0079,2.93,8.51,9.0000,19.0000
1984-10-12 16:30:00 UTC,2445986.187500,29.6633,-93.4786,0079,3.91,9.21,10.0000,23.0000
1984-10-12 17:00:00 UTC,2445986.208333,29.6633,-93.4786,0079,4.54,8.91,10.0000,27.0000
1984-10-12 17:30:00 UTC,2445986.229167,29.6633,-93.4786,0079,5.33,9.62,11.0000,29.0000
1984-10-12 18:00:00 UTC,2445986.250000,29.6633,-93.4786,0079,4.50,11.13,12.0000,22.0000
1984-10-12 18:30:00 UTC,2445986.270833,29.6633,-93.4786,0079,2.92,12.67,13.0000,13.0000
1984-10-12 19:00:00 UTC,2445986.291667,29.6633,-93.4786,0079,1.67,11.88,12.0000,8.0000
1984-10-12 19:30:00 UTC,2445986.312500,29.6633,-93.4786,0079,1.05,9.95,10.0000,6.0000
1984-10-12 20:00:00 UTC,2445986.333333,29.6633,-93.4786,0079,0.00,9.00,9.0000,0.0000
1984-10-12 20:30:00 UTC,2445986.354167,29.6633,-93.4786,0079,-1.05,9.95,10.0000,354.0000
1984-10-12 21:00:00 UTC,2445986.375000,29.6633,-93.4786,0079,-1.10,8.93,9.0000,353.0000
1984-10-12 21:30:00 UTC,2445986.395833,29.6633,-93.4786,0079,-0.52,5.98,6.0000,355.0000
1984-10-12 22:00:00 UTC,2445986.416667,29.6633,-93.4786,0079,0.26,4.99,5.0000,3.0000
1984-10-12 22:30:00 UTC,2445986.437500,29.6633,-93.4786,0079,0.67,2.92,3.0000,13.0000
1984-10-12 23:00:00 UTC,2445986.458333,29.6633,-93.4786,0079,0.34,0.94,1.0000,20.0000
1984-10-12 23:30:00 UTC,2445986.479167,29.6633,-93.4786,0079,0.00,0.00,0.0000,5.0000
1984-10-13 00:00:00 UTC,2445986.500000,29.6633,-93.4786,0079,0.00,0.00,0.0000,21.0000
1984-10-13 00:30:00 UTC,2445986.520833,29.6633,-93.4786,0079,0.42,-0.91,1.0000,155.0000
1984-10-13 01:00:00 UTC,2445986.541667,29.6633,-93.4786,0079,0.99,-0.16,1.0000,99.0000
1984-10-13 01:30:00 UTC,2445986.562500,29.6633,-93.4786,0079,2.85,0.93,3.0000,72.0000
1984-10-13 02:00:00 UTC,2445986.583333,29.6633,-93.4786,0079,1.96,0.42,2.0000,78.0000
1984-10-13 02:30:00 UTC,2445986.604167,29.6633,-93.4786,0079,1.00,0.05,1.0000,87.0000
1984-10-13 03:00:00 UTC,2445986.625000,29.6633,-93.4786,0079,2.85,0.93,3.0000,72.0000
1984-10-13 03:30:00 UTC,2445986.645833,29.6633,-93.4786,0079,3.80,1.24,4.0000,72.0000
1984-10-13 04:00:00 UTC,2445986.666667,29.6633,-93.4786,0079,3.78,1.30,4.0000,71.0000
1984-10-13 04:30:00 UTC,2445986.687500,29.6633,-93.4786,0079,4.37,2.42,5.0000,61.0000
1984-10-13 05:00:00 UTC,2445986.708333,29.6633,-93.4786,0079,3.66,3.41,5.0000,47.0000
1984-10-13 05:30:00 UTC,2445986.729167,29.6633,-93.4786,0079,1.75,3.60,4.0000,26.0000
1984-10-13 06:00:00 UTC,2445986.750000,29.6633,-93.4786,0079,0.73,5.96,6.0000,7.0000
1984-10-13 06:30:00 UTC,2445986.770833,29.6633,-93.4786,0079,0.17,10.00,10.0000,1.0000
1984-10-13 07:00:00 UTC,2445986.791667,29.6633,-93.4786,0079,-0.98,13.97,14.0000,356.0000
1984-10-13 07:30:00 UTC,2445986.812500,29.6633,-93.4786,0079,-1.83,14.89,15.0000,353.0000
1984-10-13 08:00:00 UTC,2445986.833333,29.6633,-93.4786,0079,-1.13,12.95,13.0000,355.0000
1984-10-13 08:30:00 UTC,2445986.854167,29.6633,-93.4786,0079,0.35,9.99,10.0000,2.0000
1984-10-13 09:00:00 UTC,2445986.875000,29.6633,-93.4786,0079,1.10,8.93,9.0000,7.0000
1984-10-13 09:30:00 UTC,2445986.895833,29.6633,-93.4786,0079,1.94,7.76,8.0000,14.0000
1984-10-13 10:00:00 UTC,2445986.916667,29.6633,-93.4786,0079,3.18,5.09,6.0000,32.0000
1984-10-13 10:30:00 UTC,2445986.937500,29.6633,-93.4786,0079,4.46,4.01,6.0000,48.0000
1984-10-13 11:00:00 UTC,2445986.958333,29.6633,-93.4786,0079,6.06,3.50,7.0000,60.0000
1984-10-13 11:30:00 UTC,2445986.979167,29.6633,-93.4786,0079,7.00,0.12,7.0000,89.0000
1984-10-13 12:00:00 UTC,2445987.000000,29.6633,-93.4786,0079,8.51,-2.93,9.0000,109.0000
1984-10-13 12:30:00 UTC,2445987.020833,29.6633,-93.4786,0079,10.27,-3.94,11.0000,111.0000
1984-10-13 13:00:00 UTC,2445987.041667,29.6633,-93.4786,0079,11.13,-4.50,12.0000,112.0000
1984-10-13 13:30:00 UTC,2445987.062500,29.6633,-93.4786,0079,11.20,-4.30,12.0000,111.0000
1984-10-13 14:00:00 UTC,2445987.083333,29.6633,-93.4786,0079,11.35,-3.91,12.0000,109.0000
1984-10-13 14:30:00 UTC,2445987.104167,29.6633,-93.4786,0079,11.20,-4.30,12.0000,111.0000
1984-10-13 15:00:00 UTC,2445987.125000,29.6633,-93.4786,0079,10.27,-3.94,11.0000,111.0000
1984-10-13 15:30:00 UTC,2445987.145833,29.6633,-93.4786,0079,9.74,-2.25,10.0000,103.0000
1984-10-13 16:00:00 UTC,2445987.166667,29.6633,-93.4786,0079,9.88,-1.56,10.0000,99.0000
1984-10-13 16:30:00 UTC,2445987.187500,29.6633,-93.4786,0079,9.82,-1.91,10.0000,101.0000
1984-10-13 17:00:00 UTC,2445987.208333,29.6633,-93.4786,0079,9.90,-1.39,10.0000,98.0000
1984-10-13 17:30:00 UTC,2445987.229167,29.6633,-93.4786,0079,8.99,-0.31,9.0000,92.0000
1984-10-13 18:00:00 UTC,2445987.250000,29.6633,-93.4786,0079,8.00,-0.14,8.0000,91.0000
1984-10-13 18:30:00 UTC,2445987.270833,29.6633,-93.4786,0079,7.00,0.12,7.0000,89.0000
1984-10-13 19:00:00 UTC,2445987.291667,29.6633,-93.4786,0079,6.99,0.37,7.0000,87.0000
1984-10-13 19:30:00 UTC,2445987.312500,29.6633,-93.4786,0079,6.97,0.61,7.0000,85.0000
1984-10-13 20:00:00 UTC,2445987.333333,29.6633,-93.4786,0079,6.89,1.22,7.0000,80.0000
1984-10-13 20:30:00 UTC,2445987.354167,29.6633,-93.4786,0079,5.96,0.73,6.0000,83.0000
1984-10-13 21:00:00 UTC,2445987.375000,29.6633,-93.4786,0079,5.82,-1.45,6.0000,104.0000
1984-10-13 21:30:00 UTC,2445987.395833,29.6633,-93.4786,0079,5.87,-3.81,7.0000,123.0000
1984-10-13 22:00:00 UTC,2445987.416667,29.6633,-93.4786,0079,3.69,-4.73,6.0000,142.0000
1984-10-13 22:30:00 UTC,2445987.437500,29.6633,-93.4786,0079,1.93,-6.73,7.0000,164.0000
1984-10-13 23:00:00 UTC,2445987.458333,29.6633,-93.4786,0079,0.14,-8.00,8.0000,179.0000
1984-10-13 23:30:00 UTC,2445987.479167,29.6633,-93.4786,0079,-0.94,-8.95,9.0000,186.0000
1984-10-14 00:00:00 UTC,2445987.500000,29.6633,-93.4786,0079,-0.31,-8.99,9.0000,182.0000
1984-10-14 00:30:00 UTC,2445987.520833,29.6633,-93.4786,0079,0.70,-9.98,10.0000,176.0000
1984-10-14 01:00:00 UTC,2445987.541667,29.6633,-93.4786,0079,1.34,-10.92,11.0000,173.0000
1984-10-14 01:30:00 UTC,2445987.562500,29.6633,-93.4786,0079,2.29,-10.76,11.0000,168.0000
1984-10-14 02:00:00 UTC,2445987.583333,29.6633,-93.4786,0079,2.59,-9.66,10.0000,165.0000
1984-10-14 02:30:00 UTC,2445987.604167,29.6633,-93.4786,0079,1.87,-8.80,9.0000,168.0000
1984-10-14 03:00:00 UTC,2445987.625000,29.6633,-93.4786,0079,1.56,-8.86,9.0000,170.0000
1984-10-14 03:30:00 UTC,2445987.645833,29.6633,-93.4786,0079,2.59,-9.66,10.0000,165.0000
1984-10-14 04:00:00 UTC,2445987.666667,29.6633,-93.4786,0079,3.22,-10.52,11.0000,163.0000
1984-10-14 04:30:00 UTC,2445987.687500,29.6633,-93.4786,0079,3.76,-10.34,11.0000,160.0000
1984-10-14 05:00:00 UTC,2445987.708333,29.6633,-93.4786,0079,6.18,-10.29,12.0000,149.0000
1984-10-14 05:30:00 UTC,2445987.729167,29.6633,-93.4786,0079,8.03,-11.47,14.0000,145.0000
1984-10-14 06:00:00 UTC,2445987.750000,29.6633,-93.4786,0079,5.92,-12.69,14.0000,155.0000
1984-10-14 06:30:00 UTC,2445987.770833,29.6633,-93.4786,0079,0.21,-12.00,12.0000,179.0000
1984-10-14 07:00:00 UTC,2445987.791667,29.6633,-93.4786,0079,-6.77,-8.67,11.0000,218.0000
1984-10-14 07:30:00 UTC,2445987.812500,29.6633,-93.4786,0079,-10.88,-5.07,12.0000,245.0000
1984-10-14 08:00:00 UTC,2445987.833333,29.6633,-93.4786,0079,-13.86,-1.95,14.0000,262.0000
1984-10-14 08:30:00 UTC,2445987.854167,29.6633,-93.4786,0079,-17.96,1.26,18.0000,274.0000
1984-10-14 09:00:00 UTC,2445987.875000,29.6633,-93.4786,0079,-20.61,4.01,21.0000,281.0000
1984-10-14 09:30:00 UTC,2445987.895833,29.6633,-93.4786,0079,-20.46,4.72,21.0000,283.0000
1984-10-14 10:00:00 UTC,2445987.916667,29.6633,-93.4786,0079,-17.30,4.96,18.0000,286.0000
1984-10-14 10:30:00 UTC,2445987.937500,29.6633,-93.4786,0079,-12.22,4.45,13.0000,290.0000
1984-10-14 11:00:00 UTC,2445987.958333,29.6633,-93.4786,0079,-6.00,3.61,7.0000,301.0000
1984-10-14 11:30:00 UTC,2445987.979167,29.6633,-93.4786,0079,-2.57,1.55,3.0000,301.0000
1984-10-14 12:00:00 UTC,2445988.000000,29.6633,-93.4786,0079,-3.43,-2.06,4.0000,239.0000
1984-10-14 12:30:00 UTC,2445988.020833,29.6633,-93.4786,0079,-1.88,-3.53,4.0000,208.0000
1984-10-14 13:00:00 UTC,2445988.041667,29.6633,-93.4786,0079,0.29,-0.96,1.0000,163.0000
1984-10-14 13:30:00 UTC,2445988.062500,29.6633,-93.4786,0079,1.95,0.45,2.0000,77.0000
1984-10-14 14:00:00 UTC,2445988.083333,29.6633,-93.4786,0079,5.44,-2.54,6.0000,115.0000
1984-10-14 14:30:00 UTC,2445988.104167,29.6633,-93.4786,0079,4.12,-10.20,11.0000,158.0000
1984-10-14 15:00:00 UTC,2445988.125000,29.6633,-93.4786,0079,-3.15,-13.64,14.0000,193.0000
1984-10-14 15:30:00 UTC,2445988.145833,29.6633,-93.4786,0079,-11.89,-10.71,16.0000,228.0000
1984-10-14 16:00:00 UTC,2445988.166667,29.6633,-93.4786,0079,-18.17,-5.56,19.0000,253.0000
1984-10-14 16:30:00 UTC,2445988.187500,29.6633,-93.4786,0079,-18.00,-0.00,18.0000,270.0000
1984-10-14 17:00:00 UTC,2445988.208333,29.6633,-93.4786,0079,-14.27,4.64,15.0000,288.0000
1984-10-14 17:30:00 UTC,2445988.229167,29.6633,-93.4786,0079,-12.58,6.14,14.0000,296.0000
1984-10-14 18:00:00 UTC,2445988.250000,29.6633,-93.4786,0079,-9.35,9.03,13.0000,314.0000
1984-10-14 18:30:00 UTC,2445988.270833,29.6633,-93.4786,0079,-4.66,12.14,13.0000,339.0000
1984-10-14 19:00:00 UTC,2445988.291667,29.6633,-93.4786,0079,-6.02,7.99,10.0000,323.0000
1984-10-14 19:30:00 UTC,2445988.312500,29.6633,-93.4786,0079,-13.12,7.27,15.0000,299.0000
1984-10-14 20:00:00 UTC,2445988.333333,29.6633,-93.4786,0079,-18.12,14.16,23.0000,308.0000
1984-10-14 20:30:00 UTC,2445988.354167,29.6633,-93.4786,0079,-19.02,17.73,26.0000,313.0000
1984-10-14 21:00:00 UTC,2445988.375000,29.6633,-93.4786,0079,-12.34,16.99,21.0000,324.0000
1984-10-14 21:30:00 UTC,2445988.395833,29.6633,-93.4786,0079,0.17,10.00,10.0000,1.0000
1984-10-14 22:00:00 UTC,2445988.416667,29.6633,-93.4786,0079,4.86,-5.04,7.0000,136.0000
1984-10-14 22:30:00 UTC,2445988.437500,29.6633,-93.4786,0079,-5.86,-13.81,15.0000,203.0000
1984-10-14 23:00:00 UTC,2445988.458333,29.6633,-93.4786,0079,-20.35,-12.72,24.0000,238.0000
1984-10-14 23:30:00 UTC,2445988.479167,29.6633,-93.4786,0079,-26.96,-13.15,30.0000,244.0000
1984-10-15 00:00:00 UTC,2445988.500000,29.6633,-93.4786,0079,-27.36,-18.45,33.0000,236.0000
1984-10-15 00:30:00 UTC,2445988.520833,29.6633,-93.4786,0079,-24.43,-19.09,31.0000,232.0000
1984-10-15 01:00:00 UTC,2445988.541667,29.6633,-93.4786,0079,-23.16,-17.45,29.0000,233.0000
1984-10-15 01:30:00 UTC,2445988.562500,29.6633,-93.4786,0079,-22.38,-15.10,27.0000,236.0000
1984-10-15 02:00:00 UTC,2445988.583333,29.6633,-93.4786,0079,-21.55,-14.54,26.0000,236.0000
1984-10-15 02:30:00 UTC,2445988.604167,29.6633,-93.4786,0079,-19.77,-9.64,22.0000,244.0000
1984-10-15 03:00:00 UTC,2445988.625000,29.6633,-93.4786,0079,-18.82,-2.64,19.0000,262.0000
1984-10-15 03:30:00 UTC,2445988.645833,29.6633,-93.4786,0079,-16.98,0.89,17.0000,273.0000
1984-10-15 04:00:00 UTC,2445988.666667,29.6633,-93.4786,0079,-16.99,0.59,17.0000,272.0000
1984-10-15 04:30:00 UTC,2445988.687500,29.6633,-93.4786,0079,-19.00,-0.00,19.0000,270.0000
1984-10-15 05:00:00 UTC,2445988.708333,29.6633,-93.4786,0079,-18.90,1.99,19.0000,276.0000
1984-10-15 05:30:00 UTC,2445988.729167,29.6633,-93.4786,0079,-17.67,3.43,18.0000,281.0000
1984-10-15 06:00:00 UTC,2445988.750000,29.6633,-93.4786,0079,-16.42,4.40,17.0000,285.0000
1984-10-15 06:30:00 UTC,2445988.770833,29.6633,-93.4786,0079,-15.87,6.09,17.0000,291.0000
1984-10-15 07:00:00 UTC,2445988.791667,29.6633,-93.4786,0079,-16.44,7.32,18.0000,294.0000
1984-10-15 07:30:00 UTC,2445988.812500,29.6633,-93.4786,0079,-16.31,7.61,18.0000,295.0000
1984-10-15 08:00:00 UTC,2445988.833333,29.6633,-93.4786,0079,-16.93,8.63,19.0000,297.0000
1984-10-15 08:30:00 UTC,2445988.854167,29.6633,-93.4786,0079,-18.71,9.53,21.0000,297.0000
1984-10-15 09:00:00 UTC,2445988.875000,29.6633,-93.4786,0079,-20.78,12.00,24.0000,300.0000
1984-10-15 09:30:00 UTC,2445988.895833,29.6633,-93.4786,0079,-22.36,16.85,28.0000,307.0000
1984-10-15 10:00:00 UTC,2445988.916667,29.6633,-93.4786,0079,-19.75,18.41,27.0000,313.0000
1984-10-15 10:30:00 UTC,2445988.937500,29.6633,-93.4786,0079,-13.89,14.39,20.0000,316.0000
1984-10-15 11:00:00 UTC,2445988.958333,29.6633,-93.4786,0079,-9.73,10.07,14.0000,316.0000
1984-10-15 11:30:00 UTC,2445988.979167,29.6633,-93.4786,0079,-6.58,6.14,9.0000,313.0000
1984-10-15 12:00:00 UTC,2445989.000000,29.6633,-93.4786,0079,-4.97,0.52,5.0000,276.0000
1984-10-15 12:30:00 UTC,2445989.020833,29.6633,-93.4786,0079,-3.81,-5.87,7.0000,213.0000
1984-10-15 13:00:00 UTC,2445989.041667,29.6633,-93.4786,0079,-4.77,-7.63,9.0000,212.0000
1984-10-15 13:30:00 UTC,2445989.062500,29.6633,-93.4786,0079,-7.28,-5.29,9.0000,234.0000
1984-10-15 14:00:00 UTC,2445989.083333,29.6633,-93.4786,0079,-9.14,-4.07,10.0000,246.0000
1984-10-15 14:30:00 UTC,2445989.104167,29.6633,-93.4786,0079,-8.09,-3.95,9.0000,244.0000
1984-10-15 15:00:00 UTC,2445989.125000,29.6633,-93.4786,0079,-5.80,-1.55,6.0000,255.0000
1984-10-15 15:30:00 UTC,2445989.145833,29.6633,-93.4786,0079,-4.97,0.52,5.0000,276.0000
1984-10-15 16:00:00 UTC,2445989.166667,29.6633,-93.4786,0079,-5.71,1.85,6.0000,288.0000
1984-10-15 16:30:00 UTC,2445989.187500,29.6633,-93.4786,0079,-5.25,2.91,6.0000,299.0000
1984-10-15 17:00:00 UTC,2445989.208333,29.6633,-93.4786,0079,-5.52,4.31,7.0000,308.0000
1984-10-15 17:30:00 UTC,2445989.229167,29.6633,-93.4786,0079,-3.81,5.87,7.0000,327.0000
1984-10-15 18:00:00 UTC,2445989.250000,29.6633,-93.4786,0079,-1.22,6.89,7.0000,350.0000
1984-10-15 18:30:00 UTC,2445989.270833,29.6633,-93.4786,0079,0.97,7.94,8.0000,7.0000
1984-10-15 19:00:00 UTC,2445989.291667,29.6633,-93.4786,0079,2.60,7.56,8.0000,19.0000
1984-10-15 19:30:00 UTC,2445989.312500,29.6633,-93.4786,0079,3.37,8.34,9.0000,22.0000
1984-10-15 20:00:00 UTC,2445989.333333,29.6633,-93.4786,0079,2.92,9.56,10.0000,17.0000
1984-10-15 20:30:00 UTC,2445989.354167,29.6633,-93.4786,0079,2.25,9.74,10.0000,13.0000
1984-10-15 21:00:00 UTC,2445989.375000,29.6633,-93.4786,0079,2.48,8.65,9.0000,16.0000
1984-10-15 21:30:00 UTC,2445989.395833,29.6633,-93.4786,0079,4.23,9.06,10.0000,25.0000
1984-10-15 22:00:00 UTC,2445989.416667,29.6633,-93.4786,0079,5.74,8.19,10.0000,35.0000
1984-10-15 22:30:00 UTC,2445989.437500,29.6633,-93.4786,0079,6.36,6.36,9.0000,45.0000
1984-10-15 23:00:00 UTC,2445989.458333,29.6633,-93.4786,0079,6.22,5.03,8.0000,51.0000
1984-10-15 23:30:00 UTC,2445989.479167,29.6633,-93.4786,0079,5.66,4.11,7.0000,54.0000
1984-10-16 00:00:00 UTC,2445989.500000,29.6633,-93.4786,0079,5.09,3.18,6.0000,58.0000
1984-10-16 00:30:00 UTC,2445989.520833,29.6633,-93.4786,0079,6.82,1.57,7.0000,77.0000
1984-10-16 01:00:00 UTC,2445989.541667,29.6633,-93.4786,0079,8.93,-1.10,9.0000,97.0000
1984-10-16 01:30:00 UTC,2445989.562500,29.6633,-93.4786,0079,9.56,-2.92,10.0000,107.0000
1984-10-16 02:00:00 UTC,2445989.583333,29.6633,-93.4786,0079,9.21,-3.91,10.0000,113.0000
1984-10-16 02:30:00 UTC,2445989.604167,29.6633,-93.4786,0079,10.18,-6.36,12.0000,122.0000
1984-10-16 03:00:00 UTC,2445989.625000,29.6633,-93.4786,0079,8.53,-9.81,13.0000,139.0000
1984-10-16 03:30:00 UTC,2445989.645833,29.6633,-93.4786,0079,6.14,-12.58,14.0000,154.0000
1984-10-16 04:00:00 UTC,2445989.666667,29.6633,-93.4786,0079,3.63,-14.55,15.0000,166.0000
1984-10-16 04:30:00 UTC,2445989.687500,29.6633,-93.4786,0079,1.31,-14.94,15.0000,175.0000
1984-10-16 05:00:00 UTC,2445989.708333,29.6633,-93.4786,0079,-0.49,-13.99,14.0000,182.0000
1984-10-16 05:30:00 UTC,2445989.729167,29.6633,-93.4786,0079,-0.49,-13.99,14.0000,182.0000
1984-10-16 06:00:00 UTC,2445989.750000,29.6633,-93.4786,0079,1.91,-10.83,11.0000,170.0000
1984-10-16 06:30:00 UTC,2445989.770833,29.6633,-93.4786,0079,4.66,-3.78,6.0000,129.0000
1984-10-16 07:00:00 UTC,2445989.791667,29.6633,-93.4786,0079,5.20,3.00,6.0000,60.0000
1984-10-16 07:30:00 UTC,2445989.812500,29.6633,-93.4786,0079,3.27,5.03,6.0000,33.0000
1984-10-16 08:00:00 UTC,2445989.833333,29.6633,-93.4786,0079,2.11,4.53,5.0000,25.0000
1984-10-16 08:30:00 UTC,2445989.854167,29.6633,-93.4786,0079,2.50,4.33,5.0000,30.0000
1984-10-16 09:00:00 UTC,2445989.875000,29.6633,-93.4786,0079,4.09,4.39,6.0000,43.0000
1984-10-16 09:30:00 UTC,2445989.895833,29.6633,-93.4786,0079,4.95,4.95,7.0000,45.0000
1984-10-16 10:00:00 UTC,2445989.916667,29.6633,-93.4786,0079,4.41,5.44,7.0000,39.0000
1984-10-16 10:30:00 UTC,2445989.937500,29.6633,-93.4786,0079,3.94,4.53,6.0000,41.0000
1984-10-16 11:00:00 UTC,2445989.958333,29.6633,-93.4786,0079,4.29,2.58,5.0000,59.0000
1984-10-16 11:30:00 UTC,2445989.979167,29.6633,-93.4786,0079,3.93,0.76,4.0000,79.0000
1984-10-16 12:00:00 UTC,2445990.000000,29.6633,-93.4786,0079,2.94,-0.57,3.0000,101.0000
1984-10-16 12:30:00 UTC,2445990.020833,29.6633,-93.4786,0079,0.57,-2.94,3.0000,169.0000
1984-10-16 13:00:00 UTC,2445990.041667,29.6633,-93.4786,0079,-0.49,-6.98,7.0000,184.0000
1984-10-16 13:30:00 UTC,2445990.062500,29.6633,-93.4786,0079,-0.70,-9.98,10.0000,184.0000
1984-10-16 14:00:00 UTC,2445990.083333,29.6633,-93.4786,0079,-2.47,-10.72,11.0000,193.0000
1984-10-16 14:30:00 UTC,2445990.104167,29.6633,-93.4786,0079,-5.83,-9.33,11.0000,212.0000
1984-10-16 15:00:00 UTC,2445990.125000,29.6633,-93.4786,0079,-7.50,-8.04,11.0000,223.0000
1984-10-16 15:30:00 UTC,2445990.145833,29.6633,-93.4786,0079,-5.12,-4.77,7.0000,227.0000
1984-10-16 16:00:00 UTC,2445990.166667,29.6633,-93.4786,0079,-1.03,-2.82,3.0000,200.0000
1984-10-16 16:30:00 UTC,2445990.187500,29.6633,-93.4786,0079,1.55,-5.80,6.0000,165.0000
1984-10-16 17:00:00 UTC,2445990.208333,29.6633,-93.4786,0079,3.42,-9.40,10.0000,160.0000
1984-10-16 17:30:00 UTC,2445990.229167,29.6633,-93.4786,0079,3.76,-10.34,11.0000,160.0000
1984-10-16 18:00:00 UTC,2445990.250000,29.6633,-93.4786,0079,2.76,-9.61,10.0000,164.0000
1984-10-16 18:30:00 UTC,2445990.270833,29.6633,-93.4786,0079,2.42,-9.70,10.0000,166.0000
1984-10-16 19:00:00 UTC,2445990.291667,29.6633,-93.4786,0079,2.47,-10.72,11.0000,167.0000
1984-10-16 19:30:00 UTC,2445990.312500,29.6633,-93.4786,0079,1.15,-10.94,11.0000,174.0000
1984-10-16 20:00:00 UTC,2445990.333333,29.6633,-93.4786,0079,-1.22,-9.93,10.0000,187.0000
1984-10-16 20:30:00 UTC,2445990.354167,29.6633,-93.4786,0079,-2.34,-7.65,8.0000,197.0000
1984-10-16 21:00:00 UTC,2445990.375000,29.6633,-93.4786,0079,-4.59,-6.55,8.0000,215.0000
1984-10-16 21:30:00 UTC,2445990.395833,29.6633,-93.4786,0079,-9.14,-4.07,10.0000,246.0000
1984-10-16 22:00:00 UTC,2445990.416667,29.6633,-93.4786,0079,-11.00,-0.00,11.0000,270.0000
1984-10-16 22:30:00 UTC,2445990.437500,29.6633,-93.4786,0079,-10.57,3.03,11.0000,286.0000
1984-10-16 23:00:00 UTC,2445990.458333,29.6633,-93.4786,0079,-11.05,4.69,12.0000,293.0000
1984-10-16 23:30:00 UTC,2445990.479167,29.6633,-93.4786,0079,-10.13,4.30,11.0000,293.0000
1984-10-17 00:00:00 UTC,2445990.500000,29.6633,-93.4786,0079,-10.67,2.66,11.0000,284.0000
1984-10-17 00:30:00 UTC,2445990.520833,29.6633,-93.4786,0079,-10.83,1.91,11.0000,280.0000
1984-10-17 01:00:00 UTC,2445990.541667,29.6633,-93.4786,0079,-10.52,3.22,11.0000,287.0000
1984-10-17 01:30:00 UTC,2445990.562500,29.6633,-93.4786,0079,-10.52,3.22,11.0000,287.0000
1984-10-17 02:00:00 UTC,2445990.583333,29.6633,-93.4786,0079,-10.97,0.77,11.0000,274.0000
1984-10-17 02:30:00 UTC,2445990.604167,29.6633,-93.4786,0079,-11.98,-0.63,12.0000,267.0000
1984-10-17 03:00:00 UTC,2445990.625000,29.6633,-93.4786,0079,-13.98,-0.73,14.0000,267.0000
1984-10-17 03:30:00 UTC,2445990.645833,29.6633,-93.4786,0079,-15.91,-1.67,16.0000,264.0000
1984-10-17 04:00:00 UTC,2445990.666667,29.6633,-93.4786,0079,-17.82,-2.51,18.0000,262.0000
1984-10-17 04:30:00 UTC,2445990.687500,29.6633,-93.4786,0079,-17.67,-3.43,18.0000,259.0000
1984-10-17 05:00:00 UTC,2445990.708333,29.6633,-93.4786,0079,-16.34,-4.69,17.0000,254.0000
1984-10-17 05:30:00 UTC,2445990.729167,29.6633,-93.4786,0079,-14.62,-6.51,16.0000,246.0000
1984-10-17 06:00:00 UTC,2445990.750000,29.6633,-93.4786,0079,-14.13,-7.51,16.0000,242.0000
1984-10-17 06:30:00 UTC,2445990.770833,29.6633,-93.4786,0079,-16.45,-9.50,19.0000,240.0000
1984-10-17 07:00:00 UTC,2445990.791667,29.6633,-93.4786,0079,-17.08,-8.33,19.0000,244.0000
1984-10-17 07:30:00 UTC,2445990.812500,29.6633,-93.4786,0079,-15.71,-3.05,16.0000,259.0000
1984-10-17 08:00:00 UTC,2445990.833333,29.6633,-93.4786,0079,-12.84,2.03,13.0000,279.0000
1984-10-17 08:30:00 UTC,2445990.854167,29.6633,-93.4786,0079,-11.26,6.50,13.0000,300.0000
1984-10-17 09:00:00 UTC,2445990.875000,29.6633,-93.4786,0079,-10.71,11.89,16.0000,318.0000